Time,TemperatureF,DewpointF,PressureIn,WindDirection,WindDirectionDegrees,WindSpeedMPH,WindSpeedGustMPH,Humidity,HourlyPrecipIn,Conditions,Clouds,dailyrainin,SoftwareType,DateUTC
2013-04-03 00:04:00,54.1,51.8,30.04,NNE,21,0.0,0.0,92,0.00,,,0.00,Wunderground v.1.15,2013-04-03 07:04:00,
2013-04-03 00:13:00,54.0,52.0,30.04,ESE,114,0.0,0.0,93,0.00,,,0.00,Wunderground v.1.15,2013-04-03 07:13:00,
2013-04-03 00:24:00,53.7,51.7,30.04,ESE,114,0.0,0.0,93,0.00,,,0.00,Wunderground v.1.15,2013-04-03 07:24:00,
2013-04-03 00:34:00,53.6,51.6,30.04,ESE,114,0.0,0.0,93,0.00,,,0.00,Wunderground v.1.15,2013-04-03 07:34:00,
2013-04-03 00:44:00,53.7,51.7,30.04,ESE,110,0.0,0.0,93,0.00,,,0.00,Wunderground v.1.15,2013-04-03 07:44:00,
2013-04-03 00:54:00,53.5,51.5,30.04,ESE,110,0.0,0.0,93,0.00,,,0.00,Wunderground v.1.15,2013-04-03 07:54:00,
2013-04-03 01:04:00,53.2,51.2,30.04,ESE,110,0.0,0.0,93,0.00,,,0.00,Wunderground v.1.15,2013-04-03 08:04:00,
2013-04-03 01:14:00,53.1,51.1,30.04,ESE,110,0.0,0.0,93,0.00,,,0.00,Wunderground v.1.15,2013-04-03 08:14:00,
2013-04-03 01:24:00,52.9,50.9,30.04,ESE,110,0.0,0.0,93,0.00,,,0.00,Wunderground v.1.15,2013-04-03 08:24:00,
2013-04-03 01:33:00,52.6,50.6,30.04,ESE,110,0.0,0.0,93,0.00,,,0.00,Wunderground v.1.15,2013-04-03 08:33:00,
2013-04-03 01:44:00,52.4,50.4,30.04,ESE,110,0.0,0.0,93,0.00,,,0.00,Wunderground v.1.15,2013-04-03 08:44:00,
2013-04-03 01:54:00,52.4,50.7,30.04,ESE,110,0.0,0.0,94,0.00,,,0.00,Wunderground v.1.15,2013-04-03 08:54:00,
2013-04-03 02:04:00,52.6,50.9,30.04,ESE,110,0.0,0.0,94,0.00,,,0.00,Wunderground v.1.15,2013-04-03 09:04:00,
2013-04-03 02:14:00,52.5,50.8,30.04,ESE,110,0.0,0.0,94,0.00,,,0.00,Wunderground v.1.15,2013-04-03 09:14:00,
2013-04-03 02:24:00,52.7,51.0,30.04,ESE,110,0.0,0.0,94,0.00,,,0.00,Wunderground v.1.15,2013-04-03 09:24:00,
2013-04-03 02:34:00,53.1,51.7,30.04,ESE,110,0.0,0.0,95,0.00,,,0.00,Wunderground v.1.15,2013-04-03 09:34:00,
2013-04-03 02:44:00,52.5,50.8,30.04,ESE,110,0.0,0.0,94,0.00,,,0.00,Wunderground v.1.15,2013-04-03 09:44:00,
2013-04-03 02:54:00,52.8,51.1,30.03,ESE,110,0.0,0.0,94,0.00,,,0.00,Wunderground v.1.15,2013-04-03 09:54:00,
2013-04-03 03:04:00,53.0,51.3,30.03,ESE,110,0.0,0.0,94,0.00,,,0.00,Wunderground v.1.15,2013-04-03 10:04:00,
2013-04-03 03:14:00,53.3,51.3,30.04,ESE,110,0.0,0.0,93,0.00,,,0.00,Wunderground v.1.15,2013-04-03 10:14:00,
2013-04-03 03:24:00,53.6,51.9,30.04,ESE,110,0.0,0.0,94,0.00,,,0.00,Wunderground v.1.15,2013-04-03 10:24:00,
2013-04-03 03:34:00,54.2,52.5,30.03,ESE,110,0.0,0.0,94,0.00,,,0.00,Wunderground v.1.15,2013-04-03 10:34:00,
2013-04-03 03:44:00,54.1,51.8,30.03,ESE,110,0.0,0.0,92,0.00,,,0.00,Wunderground v.1.15,2013-04-03 10:44:00,
2013-04-03 03:54:00,54.0,51.7,30.03,ESE,110,0.0,0.0,92,0.00,,,0.00,Wunderground v.1.15,2013-04-03 10:54:00,
2013-04-03 04:04:00,54.4,52.4,30.03,ESE,110,0.0,0.0,93,0.00,,,0.00,Wunderground v.1.15,2013-04-03 11:04:00,
2013-04-03 04:14:00,54.7,52.4,30.03,ESE,110,0.0,0.0,92,0.00,,,0.00,Wunderground v.1.15,2013-04-03 11:14:00,
2013-04-03 04:24:00,54.8,52.5,30.03,ESE,110,0.0,0.0,92,0.00,,,0.00,Wunderground v.1.15,2013-04-03 11:24:00,
2013-04-03 04:34:00,54.7,52.4,30.03,ESE,110,0.0,0.0,92,0.00,,,0.00,Wunderground v.1.15,2013-04-03 11:34:00,
2013-04-03 04:44:00,54.5,51.9,30.03,ESE,110,0.0,0.0,91,0.00,,,0.00,Wunderground v.1.15,2013-04-03 11:44:00,
2013-04-03 04:54:00,54.6,52.0,30.03,ESE,110,0.0,0.0,91,0.00,,,0.00,Wunderground v.1.15,2013-04-03 11:54:00,
2013-04-03 05:04:00,54.7,52.4,30.04,ESE,110,0.0,0.0,92,0.00,,,0.00,Wunderground v.1.15,2013-04-03 12:04:00,
2013-04-03 05:14:00,54.9,52.6,30.04,ESE,110,0.0,0.0,92,0.00,,,0.00,Wunderground v.1.15,2013-04-03 12:14:00,
2013-04-03 05:24:00,54.9,52.6,30.04,ESE,110,0.0,0.0,92,0.00,,,0.00,Wunderground v.1.15,2013-04-03 12:24:00,
2013-04-03 05:34:00,54.8,52.5,30.03,ESE,102,0.0,0.0,92,0.00,,,0.00,Wunderground v.1.15,2013-04-03 12:34:00,
2013-04-03 05:44:00,54.9,52.6,30.04,ENE,73,0.0,0.0,92,0.00,,,0.00,Wunderground v.1.15,2013-04-03 12:44:00,
2013-04-03 05:54:00,54.9,52.6,30.04,ENE,73,0.0,0.0,92,0.00,,,0.00,Wunderground v.1.15,2013-04-03 12:54:00,
2013-04-03 06:04:00,54.8,52.2,30.04,ENE,73,0.0,0.0,91,0.00,,,0.00,Wunderground v.1.15,2013-04-03 13:04:00,
2013-04-03 06:14:00,54.8,52.5,30.04,ENE,76,0.0,0.0,92,0.00,,,0.00,Wunderground v.1.15,2013-04-03 13:14:00,
2013-04-03 06:24:00,54.7,52.1,30.05,ENE,78,0.0,0.0,91,0.00,,,0.00,Wunderground v.1.15,2013-04-03 13:24:00,
2013-04-03 06:34:00,54.6,52.0,30.05,ENE,76,0.0,0.0,91,0.00,,,0.00,Wunderground v.1.15,2013-04-03 13:34:00,
2013-04-03 06:43:00,54.7,52.4,30.05,ENE,76,0.0,0.0,92,0.00,,,0.00,Wunderground v.1.15,2013-04-03 13:43:00,
2013-04-03 06:54:00,54.8,52.5,30.06,East,83,0.0,0.0,92,0.00,,,0.00,Wunderground v.1.15,2013-04-03 13:54:00,
2013-04-03 07:04:00,54.8,52.5,30.05,East,83,0.0,0.0,92,0.00,,,0.00,Wunderground v.1.15,2013-04-03 14:04:00,
2013-04-03 07:14:00,54.8,52.5,30.06,East,83,0.0,0.0,92,0.00,,,0.00,Wunderground v.1.15,2013-04-03 14:14:00,
2013-04-03 07:24:00,54.9,52.6,30.07,East,83,0.0,0.0,92,0.00,,,0.00,Wunderground v.1.15,2013-04-03 14:24:00,
2013-04-03 07:34:00,54.9,52.6,30.07,East,83,0.0,0.0,92,0.00,,,0.00,Wunderground v.1.15,2013-04-03 14:34:00,
2013-04-03 07:43:00,54.9,52.6,30.07,East,83,0.0,0.0,92,0.00,,,0.00,Wunderground v.1.15,2013-04-03 14:43:00,
2013-04-03 07:54:00,54.9,52.6,30.07,East,83,0.0,0.0,92,0.00,,,0.00,Wunderground v.1.15,2013-04-03 14:54:00,
2013-04-03 08:04:00,55.0,52.7,30.07,East,83,0.0,0.0,92,0.00,,,0.00,Wunderground v.1.15,2013-04-03 15:04:00,
2013-04-03 08:14:00,55.1,52.5,30.07,East,81,0.0,0.0,91,0.00,,,0.00,Wunderground v.1.15,2013-04-03 15:14:00,
2013-04-03 08:24:00,55.3,52.7,30.07,ESE,115,0.0,0.0,91,0.00,,,0.00,Wunderground v.1.15,2013-04-03 15:24:00,
2013-04-03 08:34:00,55.4,52.8,30.07,NE,49,0.0,0.0,91,0.00,,,0.00,Wunderground v.1.15,2013-04-03 15:34:00,
2013-04-03 08:44:00,55.5,52.9,30.07,SSW,198,0.0,0.0,91,0.00,,,0.00,Wunderground v.1.15,2013-04-03 15:44:00,
2013-04-03 08:54:00,55.6,53.0,30.07,West,273,0.0,0.0,91,0.00,,,0.00,Wunderground v.1.15,2013-04-03 15:54:00,
2013-04-03 09:04:00,55.8,53.2,30.07,East,88,0.0,1.0,91,0.00,,,0.00,Wunderground v.1.15,2013-04-03 16:04:00,
2013-04-03 09:14:00,56.0,53.1,30.07,East,88,0.0,0.0,90,0.00,,,0.00,Wunderground v.1.15,2013-04-03 16:14:00,
2013-04-03 09:23:00,56.2,53.3,30.07,East,90,0.0,0.0,90,0.00,,,0.00,Wunderground v.1.15,2013-04-03 16:23:00,
2013-04-03 09:34:00,56.6,53.4,30.07,East,90,0.0,0.0,89,0.00,,,0.00,Wunderground v.1.15,2013-04-03 16:34:00,
2013-04-03 09:44:00,57.0,53.5,30.07,WNW,290,0.0,0.0,88,0.00,,,0.00,Wunderground v.1.15,2013-04-03 16:44:00,
2013-04-03 09:54:00,57.5,53.7,30.07,WNW,290,0.0,0.0,87,0.00,,,0.00,Wunderground v.1.15,2013-04-03 16:54:00,
2013-04-03 10:04:00,58.0,54.2,30.07,SW,223,1.0,1.0,87,0.00,,,0.00,Wunderground v.1.15,2013-04-03 17:04:00,
2013-04-03 10:14:00,57.9,54.1,30.07,WSW,244,2.0,3.0,87,0.00,,,0.00,Wunderground v.1.15,2013-04-03 17:14:00,
2013-04-03 10:24:00,57.6,54.1,30.08,West,269,2.0,2.0,88,0.00,,,0.00,Wunderground v.1.15,2013-04-03 17:24:00,
2013-04-03 10:34:00,57.6,54.1,30.08,WNW,284,0.0,0.0,88,0.00,,,0.00,Wunderground v.1.15,2013-04-03 17:34:00,
2013-04-03 10:44:00,57.7,54.2,30.08,SW,234,1.0,1.0,88,0.00,,,0.00,Wunderground v.1.15,2013-04-03 17:44:00,
2013-04-03 10:54:00,57.2,53.7,30.07,WNW,300,1.0,2.0,88,0.00,,,0.00,Wunderground v.1.15,2013-04-03 17:54:00,
2013-04-03 11:04:00,57.2,53.7,30.07,SSW,192,1.0,1.0,88,0.00,,,0.00,Wunderground v.1.15,2013-04-03 18:04:00,
2013-04-03 11:14:00,58.1,54.6,30.06,SE,130,0.0,0.0,88,0.00,,,0.00,Wunderground v.1.15,2013-04-03 18:14:00,
2013-04-03 11:34:00,59.3,54.8,30.05,West,263,0.0,0.0,85,0.00,,,0.00,Wunderground v.1.15,2013-04-03 18:34:00,
2013-04-03 12:04:00,61.9,56.3,30.03,WNW,285,1.0,1.0,82,0.00,,,0.00,Wunderground v.1.15,2013-04-03 19:04:00,
2013-04-03 12:14:00,61.6,55.7,30.03,WNW,286,2.0,4.0,81,0.00,,,0.00,Wunderground v.1.15,2013-04-03 19:14:00,
2013-04-03 12:24:00,60.8,55.3,30.03,WNW,284,4.0,4.0,82,0.00,,,0.00,Wunderground v.1.15,2013-04-03 19:24:00,
2013-04-03 12:44:00,60.3,55.1,30.03,West,261,6.0,6.0,83,0.00,,,0.00,Wunderground v.1.15,2013-04-03 19:44:00,
2013-04-03 12:54:00,59.9,55.4,30.03,WSW,244,7.0,7.0,85,0.00,,,0.00,Wunderground v.1.15,2013-04-03 19:54:00,
2013-04-03 13:14:00,60.1,55.6,30.03,West,272,8.0,8.0,85,0.00,,,0.00,Wunderground v.1.15,2013-04-03 20:14:00,
2013-04-03 13:24:00,59.5,55.0,30.03,NW,305,8.0,11.0,85,0.00,,,0.00,Wunderground v.1.15,2013-04-03 20:24:00,
2013-04-03 13:34:00,59.0,54.8,30.03,WSW,250,9.0,9.0,86,0.00,,,0.00,Wunderground v.1.15,2013-04-03 20:34:00,
2013-04-03 13:44:00,58.6,54.4,30.03,West,259,8.0,8.0,86,0.00,,,0.00,Wunderground v.1.15,2013-04-03 20:44:00,
2013-04-03 13:54:00,59.1,54.9,30.03,WNW,291,7.0,7.0,86,0.00,,,0.00,Wunderground v.1.15,2013-04-03 20:54:00,
2013-04-03 14:14:00,59.2,54.7,30.03,WNW,283,4.0,5.0,85,0.00,,,0.00,Wunderground v.1.15,2013-04-03 21:14:00,
2013-04-03 14:24:00,59.6,55.1,30.03,West,281,3.0,3.0,85,0.00,,,0.00,Wunderground v.1.15,2013-04-03 21:24:00,
2013-04-03 14:34:00,59.5,55.0,30.03,WSW,247,4.0,4.0,85,0.00,,,0.00,Wunderground v.1.15,2013-04-03 21:34:00,
2013-04-03 14:44:00,59.9,55.4,30.02,WNW,287,4.0,9.0,85,0.00,,,0.00,Wunderground v.1.15,2013-04-03 21:44:00,
2013-04-03 14:54:00,59.6,55.4,30.02,West,269,4.0,4.0,86,0.00,,,0.00,Wunderground v.1.15,2013-04-03 21:54:00,
2013-04-03 15:04:00,59.7,54.9,30.01,West,265,4.0,4.0,84,0.00,,,0.00,Wunderground v.1.15,2013-04-03 22:04:00,
2013-04-03 15:14:00,59.7,55.5,30.01,WNW,302,5.0,5.0,86,0.00,,,0.00,Wunderground v.1.15,2013-04-03 22:14:00,
2013-04-03 15:24:00,60.1,55.6,30.01,WNW,296,3.0,8.0,85,0.00,,,0.00,Wunderground v.1.15,2013-04-03 22:24:00,
2013-04-03 15:34:00,60.3,55.8,30.00,WSW,244,3.0,3.0,85,0.00,,,0.00,Wunderground v.1.15,2013-04-03 22:34:00,
2013-04-03 15:44:00,60.2,55.7,30.00,WNW,300,3.0,8.0,85,0.00,,,0.00,Wunderground v.1.15,2013-04-03 22:44:00,
2013-04-03 16:04:00,60.0,55.5,29.99,NW,315,1.0,1.0,85,0.00,,,0.00,Wunderground v.1.15,2013-04-03 23:04:00,
2013-04-03 16:24:00,61.6,56.7,29.99,SSW,212,0.0,0.0,84,0.00,,,0.00,Wunderground v.1.15,2013-04-03 23:24:00,
2013-04-03 16:34:00,61.7,56.1,29.99,WSW,246,1.0,1.0,82,0.00,,,0.00,Wunderground v.1.15,2013-04-03 23:34:00,
2013-04-03 16:44:00,61.9,56.3,29.99,WSW,241,1.0,1.0,82,0.00,,,0.00,Wunderground v.1.15,2013-04-03 23:44:00,
2013-04-03 16:54:00,61.8,56.2,29.99,SSW,192,1.0,5.0,82,0.00,,,0.00,Wunderground v.1.15,2013-04-03 23:54:00,
2013-04-03 17:04:00,61.0,55.8,29.99,SW,221,2.0,2.0,83,0.00,,,0.00,Wunderground v.1.15,2013-04-04 00:04:00,
2013-04-03 17:14:00,60.5,55.6,29.99,South,181,2.0,5.0,84,0.00,,,0.00,Wunderground v.1.15,2013-04-04 00:14:00,
2013-04-03 17:24:00,59.2,55.3,29.99,South,188,3.0,6.0,87,0.00,,,0.00,Wunderground v.1.15,2013-04-04 00:24:00,
2013-04-03 17:34:00,59.2,55.6,29.99,SSE,167,1.0,1.0,88,0.00,,,0.00,Wunderground v.1.15,2013-04-04 00:34:00,
2013-04-03 17:44:00,59.5,55.6,29.99,SE,139,1.0,1.0,87,0.00,,,0.00,Wunderground v.1.15,2013-04-04 00:44:00,
2013-04-03 17:54:00,59.6,55.7,29.99,SSW,197,2.0,2.0,87,0.00,,,0.00,Wunderground v.1.15,2013-04-04 00:54:00,
2013-04-03 18:04:00,59.5,55.6,30.00,SSE,167,1.0,1.0,87,0.00,,,0.00,Wunderground v.1.15,2013-04-04 01:04:00,
2013-04-03 18:14:00,59.4,55.8,30.00,SSW,194,1.0,6.0,88,0.00,,,0.00,Wunderground v.1.15,2013-04-04 01:14:00,
2013-04-03 18:24:00,59.3,55.7,30.00,SE,130,1.0,1.0,88,0.00,,,0.00,Wunderground v.1.15,2013-04-04 01:24:00,
2013-04-03 18:54:00,58.2,55.3,30.00,SE,131,0.0,0.0,90,0.00,,,0.00,Wunderground v.1.15,2013-04-04 01:54:00,
2013-04-03 19:04:00,58.2,55.3,30.01,SSW,194,0.0,0.0,90,0.00,,,0.00,Wunderground v.1.15,2013-04-04 02:04:00,
2013-04-03 19:24:00,57.9,55.3,30.01,SSE,168,0.0,0.0,91,0.00,,,0.00,Wunderground v.1.15,2013-04-04 02:24:00,
2013-04-03 19:34:00,58.0,55.4,30.02,South,173,0.0,0.0,91,0.00,,,0.00,Wunderground v.1.15,2013-04-04 02:34:00,
2013-04-03 19:44:00,57.9,55.3,30.01,South,173,0.0,0.0,91,0.00,,,0.00,Wunderground v.1.15,2013-04-04 02:44:00,
2013-04-03 19:54:00,57.9,55.3,30.02,SW,233,0.0,0.0,91,0.00,,,0.00,Wunderground v.1.15,2013-04-04 02:54:00,
2013-04-03 20:34:00,58.0,55.4,30.03,NNW,328,0.0,0.0,91,0.00,,,0.00,Wunderground v.1.15,2013-04-04 03:34:00,
2013-04-03 20:44:00,57.8,55.2,30.03,West,269,0.0,0.0,91,0.00,,,0.00,Wunderground v.1.15,2013-04-04 03:44:00,
2013-04-03 20:54:00,57.7,55.1,30.04,West,269,0.0,0.0,91,0.00,,,0.00,Wunderground v.1.15,2013-04-04 03:54:00,
2013-04-03 21:03:00,57.6,55.0,30.04,WNW,283,0.0,0.0,91,0.00,,,0.00,Wunderground v.1.15,2013-04-04 04:03:00,
2013-04-03 21:14:00,57.6,55.0,30.04,NW,304,0.0,0.0,91,0.00,,,0.00,Wunderground v.1.15,2013-04-04 04:14:00,
2013-04-03 21:24:00,57.5,55.2,30.05,WNW,294,0.0,0.0,92,0.00,,,0.00,Wunderground v.1.15,2013-04-04 04:24:00,
2013-04-03 21:34:00,57.3,54.7,30.05,West,281,1.0,1.0,91,0.00,,,0.00,Wunderground v.1.15,2013-04-04 04:34:00,
2013-04-03 21:44:00,57.1,54.8,30.05,NW,308,0.0,0.0,92,0.00,,,0.00,Wunderground v.1.15,2013-04-04 04:44:00,
2013-04-03 21:54:00,56.9,54.6,30.06,WNW,283,0.0,0.0,92,0.00,,,0.00,Wunderground v.1.15,2013-04-04 04:54:00,
2013-04-03 22:04:00,56.8,54.5,30.06,West,271,0.0,0.0,92,0.00,,,0.00,Wunderground v.1.15,2013-04-04 05:04:00,
2013-04-03 22:34:00,56.6,54.6,30.07,West,272,0.0,0.0,93,0.00,,,0.00,Wunderground v.1.15,2013-04-04 05:34:00,
2013-04-03 22:44:00,56.5,54.5,30.07,West,276,0.0,0.0,93,0.00,,,0.00,Wunderground v.1.15,2013-04-04 05:44:00,
2013-04-03 22:54:00,56.4,54.4,30.07,West,263,0.0,0.0,93,0.00,,,0.00,Wunderground v.1.15,2013-04-04 05:54:00,
2013-04-03 23:04:00,56.3,54.3,30.07,West,263,0.0,0.0,93,0.00,,,0.00,Wunderground v.1.15,2013-04-04 06:04:00,
2013-04-03 23:14:00,56.4,54.4,30.08,WNW,284,0.0,0.0,93,0.00,,,0.00,Wunderground v.1.15,2013-04-04 06:14:00,
2013-04-03 23:34:00,56.4,54.4,30.08,NW,311,0.0,0.0,93,0.00,,,0.00,Wunderground v.1.15,2013-04-04 06:34:00,
2013-04-03 23:44:00,56.4,54.4,30.08,NW,311,0.0,0.0,93,0.00,,,0.00,Wunderground v.1.15,2013-04-04 06:44:00,
2013-04-03 23:54:00,56.4,54.4,30.08,NW,311,0.0,0.0,93,0.00,,,0.00,Wunderground v.1.15,2013-04-04 06:54:00,